Stevensville, MD

6:18 PM EDT on July 21, 2017 (GMT -0400)
Stevensville

Weather History for KW29 - January, 2014

Change the Weather History Date:

Wednesday, January 29, 2014

  Actual Average (KESN) Record (KESN)
Temperature  
Mean Temperature 18 °F -  
Max Temperature 23 °F 46 °F 71 °F (1975)
Min Temperature 14 °F 26 °F 1 °F (1961)
Degree Days  
Heating Degree Days 46    
Moisture  
Dew Point 2 °F    
Average Humidity 52    
Maximum Humidity 86    
Minimum Humidity 30    
Precipitation  
Precipitation 0.00 in - - ()
Sea Level Pressure  
Sea Level Pressure 30.28 in    
Wind  
Wind Speed 8 mph (NW)    
Max Wind Speed 15 mph    
Max Gust Speed 18 mph    
Visibility 9 miles    
Events Snow    
Averages and records for this station are not official NWS values.
T = Trace of Precipitation, MM = Missing Value Source: NWS Daily Summary

Daily Weather History Graph

Daily Weather History Graph

Search for Another Location

Airport or City:

Trip Planner

Search our weather history database for the weather conditions in past years. The results will help you decide how hot, cold, wet, or windy it might be!

Date:

Astronomy

Jan. 29, 2014 Rise Set
Actual Time 7:14 AM EST 5:23 PM EST
Civil Twilight 6:45 AM EST 5:51 PM EST
Nautical Twilight 6:13 AM EST 6:23 PM EST
Astronomical Twilight 5:42 AM EST 6:55 PM EST
Moon 5:48 AM EST (1/29) 4:20 PM EST (1/29)
Length of Visible Light 11h 05m
Length of Day
10h 08m
Waning Crescent, 2% of the Moon is Illuminated
Jan 29
Waning Crescent
Jan 30
New
Feb 6
First Quarter
Feb 14
Full
Feb 22
Last Quarter

Hourly Weather History & Observations

Time (EST) Temp. Windchill Dew Point Humidity Pressure Visibility Wind Dir Wind Speed Gust Speed Precip Events Conditions
12:18 AM 14.0 °F 3.9 °F 10.4 °F 86% 30.27 in 1.8 mi North 6.9 mph - N/A Snow Light Snow
12:38 AM 14.0 °F 6.5 °F 10.4 °F 86% 30.26 in 2.5 mi North 4.6 mph - N/A Snow Light Snow
12:58 AM 14.0 °F 3.9 °F 10.4 °F 86% 30.27 in 2.0 mi North 6.9 mph - N/A Snow Light Snow
1:18 AM 14.0 °F 5.1 °F 10.4 °F 86% 30.27 in 1.0 mi North 5.8 mph - N/A Snow Snow
1:38 AM 14.0 °F 6.5 °F 10.4 °F 86% 30.26 in 1.8 mi North 4.6 mph - N/A Snow Light Snow
1:58 AM 14.0 °F 3.9 °F 10.4 °F 86% 30.25 in 3.0 mi North 6.9 mph - N/A Snow Light Snow
2:18 AM 14.0 °F 5.1 °F 10.4 °F 86% 30.24 in 3.0 mi North 5.8 mph - N/A Snow Light Snow
2:38 AM 14.0 °F 2.9 °F 10.4 °F 86% 30.24 in 4.0 mi NNW 8.1 mph - N/A Snow Light Snow
2:58 AM 14.0 °F 3.9 °F 10.4 °F 86% 30.23 in 4.0 mi NNW 6.9 mph - N/A Snow Light Snow
3:18 AM 14.0 °F 2.0 °F 10.4 °F 86% 30.22 in 4.0 mi North 9.2 mph - N/A Snow Light Snow
3:38 AM 14.0 °F 3.9 °F 10.4 °F 86% 30.22 in 5.0 mi NNW 6.9 mph - N/A Snow Light Snow
3:59 AM 14.0 °F 2.9 °F 10.4 °F 86% 30.21 in 5.0 mi NNW 8.1 mph - N/A Snow Light Snow
4:19 AM 14.0 °F 3.9 °F 10.4 °F 86% 30.21 in 10.0 mi NNW 6.9 mph - N/A   Mostly Cloudy
4:39 AM 14.0 °F 2.9 °F 8.6 °F 79% 30.22 in 10.0 mi NNW 8.1 mph - N/A   Scattered Clouds
4:59 AM 15.8 °F 7.2 °F 8.6 °F 73% 30.23 in 10.0 mi NNW 5.8 mph - N/A   Scattered Clouds
5:19 AM 14.0 °F 2.0 °F 5.0 °F 67% 30.23 in 10.0 mi NNW 9.2 mph - N/A   Clear
5:39 AM 14.0 °F 2.9 °F 3.2 °F 62% 30.24 in 10.0 mi NW 8.1 mph - N/A   Clear
5:59 AM 14.0 °F 3.9 °F 8.6 °F 79% 30.25 in 10.0 mi WNW 6.9 mph - N/A   Clear
6:19 AM 14.0 °F 2.9 °F 6.8 °F 73% 30.25 in 10.0 mi WNW 8.1 mph - N/A   Clear
6:39 AM 14.0 °F 2.0 °F 8.6 °F 79% 30.25 in 10.0 mi WNW 9.2 mph - N/A   Clear
6:59 AM 14.0 °F 2.9 °F 6.8 °F 73% 30.26 in 10.0 mi WNW 8.1 mph - N/A   Clear
7:19 AM 14.0 °F 1.2 °F 6.8 °F 73% 30.26 in 10.0 mi WNW 10.4 mph - N/A   Clear
7:39 AM 14.0 °F -0.2 °F 5.0 °F 67% 30.27 in 10.0 mi WNW 12.7 mph - N/A   Clear
7:59 AM 14.0 °F 0.5 °F 3.2 °F 62% 30.28 in 10.0 mi NW 11.5 mph - N/A   Clear
8:19 AM 14.0 °F 2.0 °F 3.2 °F 62% 30.29 in 10.0 mi NW 9.2 mph - N/A   Clear
8:39 AM 14.0 °F 1.2 °F 3.2 °F 62% 30.29 in 10.0 mi WNW 10.4 mph - N/A   Clear
8:59 AM 14.0 °F 0.5 °F 1.4 °F 57% 30.29 in 10.0 mi WNW 11.5 mph - N/A   Clear
9:19 AM 14.0 °F 2.0 °F -0.4 °F 53% 30.30 in 10.0 mi NW 9.2 mph - N/A   Clear
9:39 AM 14.0 °F 1.2 °F -4.0 °F 45% 30.30 in 10.0 mi NW 10.4 mph 18.4 mph N/A   Clear
9:59 AM 14.0 °F 1.2 °F -4.0 °F 45% 30.31 in 10.0 mi WNW 10.4 mph 16.1 mph N/A   Clear
10:19 AM 15.8 °F 4.2 °F -5.8 °F 38% 30.31 in 10.0 mi WNW 9.2 mph - N/A   Clear
10:39 AM 17.6 °F 4.3 °F -5.8 °F 35% 30.31 in 10.0 mi NW 12.7 mph 17.3 mph N/A   Clear
10:59 AM 17.6 °F 5.7 °F -4.0 °F 38% 30.31 in 10.0 mi WNW 10.4 mph - N/A   Clear
11:19 AM 17.6 °F 5.7 °F -4.0 °F 38% 30.31 in 10.0 mi NW 10.4 mph - N/A   Clear
11:39 AM 19.4 °F 10.4 °F -5.8 °F 33% 30.31 in 10.0 mi WNW 6.9 mph - N/A   Clear
11:59 AM 19.4 °F 9.5 °F -4.0 °F 36% 30.30 in 10.0 mi WNW 8.1 mph - N/A   Clear
12:19 PM 19.4 °F 8.6 °F -4.0 °F 36% 30.29 in 10.0 mi NW 9.2 mph - N/A   Clear
12:39 PM 21.2 °F 11.7 °F -5.8 °F 30% 30.28 in 10.0 mi WNW 8.1 mph - N/A   Clear
1:00 PM 21.2 °F 10.9 °F -4.0 °F 33% 30.28 in 10.0 mi NW 9.2 mph - N/A   Clear
1:20 PM 21.2 °F 10.9 °F -4.0 °F 33% 30.28 in 10.0 mi WNW 9.2 mph - N/A   Clear
1:40 PM 21.2 °F 10.9 °F -4.0 °F 33% 30.28 in 10.0 mi WNW 9.2 mph - N/A   Clear
2:00 PM 21.2 °F 10.9 °F -4.0 °F 33% 30.27 in 10.0 mi WNW 9.2 mph - N/A   Clear
2:20 PM 23.0 °F 11.7 °F -4.0 °F 31% 30.26 in 10.0 mi WNW 11.5 mph - N/A   Clear
2:40 PM 23.0 °F 10.1 °F -4.0 °F 31% 30.27 in 10.0 mi WNW 15.0 mph 18.4 mph N/A   Clear
3:00 PM 23.0 °F 11.7 °F -2.2 °F 33% 30.26 in 10.0 mi WNW 11.5 mph 17.3 mph N/A   Clear
3:20 PM 23.0 °F 13.9 °F -2.2 °F 33% 30.26 in 10.0 mi West 8.1 mph - N/A   Clear
3:40 PM 23.0 °F 15.8 °F -4.0 °F 31% 30.25 in 10.0 mi West 5.8 mph - N/A   Clear
4:00 PM 23.0 °F 15.8 °F -0.4 °F 36% 30.25 in 10.0 mi West 5.8 mph - N/A   Clear
4:20 PM 23.0 °F 11.7 °F -4.0 °F 31% 30.26 in 10.0 mi WNW 11.5 mph - N/A   Clear
4:40 PM 23.0 °F 12.4 °F -4.0 °F 31% 30.27 in 10.0 mi West 10.4 mph 16.1 mph N/A   Clear
5:00 PM 21.2 °F 10.1 °F -2.2 °F 36% 30.28 in 10.0 mi WNW 10.4 mph - N/A   Clear
5:20 PM 21.2 °F 11.7 °F -4.0 °F 33% 30.28 in 10.0 mi West 8.1 mph - N/A   Clear
5:40 PM 21.2 °F 13.6 °F -0.4 °F 39% 30.29 in 10.0 mi WNW 5.8 mph - N/A   Clear
6:00 PM 21.2 °F 13.6 °F -2.2 °F 36% 30.30 in 10.0 mi WNW 5.8 mph - N/A   Clear
6:20 PM 21.2 °F 14.9 °F -2.2 °F 36% 30.30 in 10.0 mi West 4.6 mph - N/A   Clear
6:40 PM 23.0 °F 15.8 °F -0.4 °F 36% 30.31 in 10.0 mi West 5.8 mph - N/A   Clear
7:00 PM 23.0 °F 15.8 °F -0.4 °F 36% 30.31 in 10.0 mi West 5.8 mph - N/A   Clear
7:20 PM 23.0 °F 14.7 °F -0.4 °F 36% 30.32 in 10.0 mi West 6.9 mph - N/A   Clear
7:40 PM 23.0 °F 13.9 °F -0.4 °F 36% 30.33 in 10.0 mi WNW 8.1 mph - N/A   Clear
8:00 PM 23.0 °F 18.4 °F -0.4 °F 36% 30.34 in 10.0 mi West 3.5 mph - N/A   Clear
8:20 PM 23.0 °F 17.0 °F 1.4 °F 39% 30.33 in 10.0 mi West 4.6 mph - N/A   Clear
8:40 PM 23.0 °F 15.8 °F 1.4 °F 39% 30.34 in 10.0 mi West 5.8 mph - N/A   Clear
9:00 PM 23.0 °F 15.8 °F -0.4 °F 36% 30.34 in 10.0 mi WNW 5.8 mph - N/A   Clear
9:20 PM 23.0 °F 15.8 °F -0.4 °F 36% 30.34 in 10.0 mi West 5.8 mph - N/A   Clear
9:41 PM 23.0 °F 14.7 °F -2.2 °F 33% 30.34 in 10.0 mi West 6.9 mph - N/A   Clear
10:01 PM 23.0 °F 13.1 °F -0.4 °F 36% 30.34 in 10.0 mi WNW 9.2 mph - N/A   Clear
10:21 PM 23.0 °F 17.0 °F -0.4 °F 36% 30.36 in 10.0 mi WNW 4.6 mph - N/A   Clear
10:41 PM 21.2 °F 16.4 °F -0.4 °F 39% 30.37 in 10.0 mi WNW 3.5 mph - N/A   Clear
11:01 PM 21.2 °F 12.6 °F -0.4 °F 39% 30.37 in 10.0 mi WNW 6.9 mph - N/A   Clear
11:21 PM 21.2 °F 12.6 °F -0.4 °F 39% 30.38 in 10.0 mi WNW 6.9 mph - N/A   Clear
11:41 PM 21.2 °F 13.6 °F -2.2 °F 36% 30.38 in 10.0 mi WNW 5.8 mph - N/A   Clear